Total_Precipitation_Accumulation
0.39 0.43 0.59 0.55 0.38 0.36 0.60 0.60 0.64 0.42 0.39 0.45 0.47 0.53 0.51 0.48 0.41 0.33 0.32 0.34 0.41 0.52 0.57 0.55 0.60 0.62 0.63 0.68 0.73 0.78 0.80 0.79 0.75 0.73 0.73 0.75 0.80 0.81 0.79 0.79 0.80 0.85 0.96 1.04
0.44 0.39 0.51 0.45 0.28 0.27 0.31 0.33 0.37 0.32 0.41 0.41 0.43 0.47 0.49 0.48 0.38 0.29 0.28 0.30 0.33 0.43 0.60 0.56 0.61 0.70 0.71 0.75 0.83 0.86 0.88 0.83 0.79 0.74 0.71 0.68 0.68 0.69 0.69 0.71 0.70 0.74 0.82 0.88
0.72 0.37 0.51 0.52 0.36 0.33 0.33 0.33 0.35 0.43 0.44 0.36 0.40 0.47 0.47 0.41 0.31 0.27 0.27 0.28 0.31 0.37 0.54 0.62 0.66 0.76 0.84 0.87 0.93 0.91 0.91 0.84 0.78 0.73 0.70 0.68 0.64 0.64 0.67 0.70 0.72 0.76 0.81 0.87
1.04 0.66 0.75 0.53 0.36 0.35 0.36 0.36 0.33 0.35 0.32 0.32 0.37 0.40 0.37 0.31 0.28 0.25 0.23 0.24 0.28 0.33 0.40 0.53 0.58 0.66 0.76 0.84 0.96 0.96 0.94 0.92 0.88 0.85 0.85 0.88 0.87 0.88 0.88 0.85 0.88 0.94 0.99 1.02
1.10 0.81 0.47 0.27 0.22 0.33 0.42 0.42 0.33 0.27 0.23 0.20 0.23 0.30 0.35 0.29 0.27 0.28 0.26 0.24 0.25 0.29 0.31 0.37 0.46 0.53 0.62 0.77 0.93 1.06 1.12 1.13 1.13 1.13 1.16 1.18 1.20 1.20 1.19 1.19 1.19 1.17 1.14 1.10
1.09 0.91 0.48 0.28 0.14 0.17 0.32 0.52 0.27 0.20 0.20 0.19 0.19 0.32 0.39 0.34 0.30 0.29 0.27 0.26 0.25 0.26 0.28 0.32 0.42 0.51 0.64 0.85 1.02 1.15 1.22 1.26 1.28 1.34 1.39 1.35 1.31 1.26 1.19 1.16 1.18 1.16 1.14 1.09
0.91 0.88 0.49 0.30 0.15 0.14 0.46 0.61 0.27 0.22 0.23 0.24 0.30 0.37 0.32 0.29 0.31 0.31 0.31 0.34 0.35 0.36 0.39 0.42 0.48 0.59 0.76 0.90 1.04 1.11 1.14 1.17 1.20 1.17 1.18 1.15 1.11 1.06 1.02 0.97 0.92 0.90 0.86 0.82
0.68 0.93 0.68 0.34 0.25 0.44 0.60 0.38 0.29 0.23 0.23 0.25 0.26 0.24 0.21 0.20 0.22 0.25 0.28 0.35 0.43 0.50 0.54 0.54 0.58 0.68 0.77 0.82 0.86 0.87 0.87 0.87 0.88 0.82 0.76 0.76 0.78 0.79 0.77 0.76 0.73 0.70 0.66 0.64
0.70 0.77 0.61 0.46 0.51 0.56 0.46 0.39 0.30 0.26 0.24 0.23 0.23 0.22 0.19 0.16 0.15 0.16 0.17 0.20 0.25 0.34 0.40 0.40 0.41 0.46 0.52 0.50 0.49 0.49 0.49 0.52 0.53 0.52 0.49 0.49 0.53 0.56 0.59 0.61 0.63 0.62 0.61 0.61
0.60 0.55 0.44 0.42 0.42 0.41 0.38 0.38 0.33 0.28 0.26 0.24 0.25 0.22 0.20 0.17 0.15 0.14 0.13 0.15 0.17 0.18 0.21 0.22 0.23 0.25 0.28 0.27 0.25 0.26 0.31 0.35 0.40 0.44 0.45 0.45 0.47 0.51 0.55 0.59 0.62 0.63 0.64 0.63
0.55 0.45 0.39 0.35 0.33 0.34 0.32 0.29 0.27 0.25 0.23 0.23 0.24 0.23 0.21 0.20 0.18 0.17 0.16 0.16 0.18 0.19 0.20 0.21 0.21 0.21 0.22 0.23 0.22 0.23 0.24 0.28 0.33 0.39 0.46 0.48 0.48 0.51 0.58 0.62 0.73 0.88 0.88 0.81
0.61 0.45 0.49 0.42 0.32 0.29 0.28 0.26 0.27 0.27 0.27 0.25 0.24 0.25 0.23 0.22 0.22 0.21 0.21 0.20 0.19 0.21 0.24 0.27 0.28 0.30 0.29 0.29 0.28 0.28 0.29 0.29 0.34 0.39 0.44 0.49 0.52 0.52 0.57 0.62 0.69 0.76 0.82 0.87
0.49 0.39 0.39 0.37 0.30 0.27 0.26 0.26 0.26 0.25 0.25 0.24 0.23 0.24 0.24 0.25 0.25 0.24 0.24 0.25 0.27 0.29 0.32 0.34 0.34 0.35 0.35 0.35 0.36 0.36 0.38 0.39 0.41 0.43 0.46 0.48 0.52 0.55 0.56 0.57 0.61 0.65 0.69 0.75
0.33 0.31 0.34 0.31 0.31 0.27 0.25 0.24 0.23 0.22 0.23 0.23 0.23 0.22 0.23 0.23 0.22 0.24 0.27 0.30 0.31 0.31 0.32 0.35 0.35 0.37 0.39 0.40 0.42 0.42 0.43 0.47 0.50 0.50 0.52 0.54 0.56 0.58 0.60 0.62 0.60 0.57 0.61 0.70
0.27 0.30 0.35 0.33 0.29 0.26 0.26 0.25 0.23 0.24 0.24 0.24 0.25 0.24 0.23 0.23 0.23 0.24 0.25 0.27 0.27 0.28 0.29 0.31 0.32 0.36 0.38 0.41 0.44 0.45 0.45 0.47 0.51 0.54 0.57 0.59 0.59 0.60 0.61 0.61 0.59 0.55 0.54 0.60
0.31 0.28 0.27 0.28 0.30 0.30 0.28 0.27 0.26 0.27 0.27 0.26 0.26 0.26 0.26 0.26 0.25 0.24 0.23 0.22 0.25 0.28 0.29 0.31 0.34 0.36 0.37 0.40 0.44 0.45 0.46 0.54 0.57 0.56 0.57 0.59 0.61 0.61 0.61 0.60 0.58 0.55 0.54 0.57
0.44 0.41 0.38 0.38 0.35 0.33 0.34 0.34 0.33 0.34 0.32 0.30 0.30 0.29 0.27 0.25 0.24 0.23 0.24 0.25 0.27 0.30 0.31 0.34 0.37 0.36 0.37 0.40 0.44 0.47 0.47 0.51 0.58 0.56 0.54 0.58 0.63 0.66 0.65 0.64 0.62 0.57 0.54 0.61
0.51 0.53 0.54 0.56 0.52 0.47 0.42 0.38 0.37 0.37 0.37 0.36 0.33 0.31 0.30 0.30 0.29 0.29 0.30 0.29 0.28 0.28 0.30 0.32 0.35 0.37 0.37 0.40 0.46 0.48 0.50 0.51 0.54 0.57 0.59 0.64 0.70 0.72 0.72 0.71 0.68 0.66 0.62 0.65
0.43 0.44 0.45 0.48 0.50 0.50 0.47 0.44 0.43 0.42 0.41 0.39 0.37 0.36 0.35 0.34 0.34 0.34 0.33 0.32 0.31 0.31 0.32 0.31 0.36 0.35 0.35 0.40 0.50 0.51 0.54 0.56 0.57 0.59 0.62 0.69 0.72 0.68 0.71 0.73 0.73 0.72 0.72 0.72
0.37 0.36 0.38 0.41 0.43 0.44 0.45 0.44 0.43 0.43 0.43 0.42 0.41 0.38 0.36 0.36 0.37 0.37 0.34 0.34 0.36 0.39 0.36 0.36 0.36 0.33 0.35 0.39 0.50 0.54 0.56 0.58 0.60 0.61 0.63 0.65 0.66 0.65 0.65 0.68 0.71 0.73 0.73 0.73
0.39 0.37 0.36 0.38 0.41 0.43 0.43 0.44 0.44 0.46 0.45 0.44 0.45 0.44 0.42 0.40 0.39 0.39 0.38 0.36 0.35 0.34 0.33 0.34 0.33 0.34 0.41 0.53 0.57 0.52 0.52 0.55 0.57 0.60 0.62 0.63 0.63 0.62 0.62 0.64 0.67 0.68 0.69 0.70
0.41 0.41 0.40 0.40 0.42 0.45 0.45 0.46 0.45 0.44 0.43 0.42 0.42 0.42 0.40 0.38 0.36 0.34 0.34 0.36 0.36 0.38 0.38 0.32 0.33 0.44 0.62 0.69 0.55 0.48 0.49 0.53 0.56 0.59 0.61 0.61 0.62 0.62 0.60 0.61 0.64 0.64 0.65 0.67
0.43 0.43 0.41 0.40 0.40 0.40 0.38 0.38 0.39 0.40 0.41 0.42 0.42 0.41 0.40 0.38 0.37 0.37 0.37 0.33 0.33 0.39 0.41 0.37 0.44 0.59 0.68 0.62 0.51 0.50 0.53 0.55 0.55 0.57 0.59 0.61 0.63 0.65 0.65 0.63 0.62 0.63 0.64 0.65
0.35 0.35 0.36 0.34 0.30 0.28 0.29 0.31 0.32 0.33 0.34 0.36 0.36 0.35 0.34 0.33 0.30 0.29 0.32 0.33 0.35 0.40 0.40 0.41 0.49 0.56 0.57 0.51 0.48 0.52 0.54 0.55 0.55 0.55 0.56 0.57 0.58 0.60 0.61 0.60 0.59 0.56 0.57 0.58
0.30 0.28 0.27 0.25 0.24 0.24 0.25 0.24 0.24 0.24 0.25 0.27 0.28 0.28 0.29 0.30 0.33 0.30 0.27 0.27 0.29 0.34 0.34 0.36 0.41 0.44 0.44 0.42 0.46 0.49 0.51 0.53 0.58 0.62 0.60 0.57 0.56 0.56 0.55 0.54 0.55 0.54 0.53 0.52
0.26 0.25 0.25 0.25 0.24 0.24 0.23 0.22 0.21 0.20 0.21 0.23 0.24 0.26 0.28 0.29 0.28 0.27 0.27 0.26 0.27 0.31 0.31 0.31 0.32 0.35 0.37 0.40 0.43 0.44 0.46 0.47 0.49 0.51 0.51 0.52 0.52 0.51 0.50 0.48 0.48 0.49 0.49 0.48
0.20 0.19 0.18 0.18 0.18 0.19 0.20 0.21 0.22 0.22 0.21 0.24 0.27 0.26 0.26 0.27 0.26 0.26 0.25 0.25 0.27 0.28 0.28 0.28 0.30 0.33 0.36 0.38 0.39 0.40 0.40 0.41 0.43 0.45 0.46 0.47 0.47 0.46 0.45 0.46 0.46 0.45 0.46 0.46